When you browse on this site, cookies collect data to enhance your experience and personalize the content and advertising you see.
Visit our Privacy Policy to learn more. By continuing to use the site, you agree to this use of cookies and data.
  • In Romania
  • List of Countries
  • For 7 days
  • Water Temperature
  • Weather Map
  • Weather Widgets
  • user-avatar
    Login

    Hourly Weather São Paulo

    Today, 23 January, Thursday

    Time Temperature Precipitation Wind Pressure Humidity
    00:00 +20°C° 0.2 mm 2 mps 695 mmHg 81%
    01:00 +20°C° 0.5 mm 2 mps 695 mmHg 82%
    02:00 +20°C° 0.5 mm 2 mps 694 mmHg 83%
    03:00 +20°C° 0 mm 2 mps 694 mmHg 83%
    04:00 +20°C° 1.4 mm 2 mps 694 mmHg 84%
    05:00 +19°C° 1.4 mm 2 mps 694 mmHg 85%
    06:00 +19°C° 1.4 mm 2 mps 694 mmHg 86%
    07:00 +19°C° 1.8 mm 2 mps 694 mmHg 87%
    08:00 +19°C° 1.8 mm 2 mps 694 mmHg 88%
    09:00 +19°C° 0 mm 2 mps 694 mmHg 91%
    10:00 +20°C° 1.3 mm 2 mps 694 mmHg 88%
    11:00 +21°C° 1.3 mm 2 mps 694 mmHg 86%
    12:00 +23°C° 1.3 mm 2 mps 694 mmHg 83%
    13:00 +23°C° 0.7 mm 2 mps 694 mmHg 84%
    14:00 +23°C° 0.7 mm 2 mps 693 mmHg 84%
    15:00 +23°C° 0.7 mm 2 mps 693 mmHg 85%
    16:00 +21°C° 1.2 mm 2 mps 693 mmHg 86%
    17:00 +21°C° 1.2 mm 2 mps 693 mmHg 88%
    18:00 +20°C° 1.2 mm 2 mps 693 mmHg 90%
    19:00 +20°C° 1.1 mm 3 mps 693 mmHg 90%
    20:00 +20°C° 1.1 mm 3 mps 693 mmHg 90%
    21:00 +20°C° 1.1 mm 3 mps 693 mmHg 91%
    22:00 +20°C° 0.2 mm 3 mps 693 mmHg 90%
    23:00 +20°C° 0.2 mm 2 mps 693 mmHg 90%

    Tomorrow, 24 January, Friday

    Time Temperature Precipitation Wind Pressure Humidity
    00:00 +20°C° 0.2 mm 2 mps 693 mmHg 90%
    01:00 +19°C° 0 mm 2 mps 692 mmHg 89%
    02:00 +19°C° 0 mm 2 mps 692 mmHg 89%
    03:00 +19°C° 0 mm 2 mps 691 mmHg 89%
    04:00 +19°C° 0 mm 2 mps 691 mmHg 88%
    05:00 +19°C° 0 mm 2 mps 692 mmHg 88%
    06:00 +19°C° 0 mm 2 mps 692 mmHg 87%
    07:00 +20°C° 0 mm 2 mps 692 mmHg 83%
    08:00 +21°C° 0 mm 2 mps 693 mmHg 80%
    09:00 +21°C° 0 mm 2 mps 693 mmHg 76%
    10:00 +22°C° 0.1 mm 3 mps 693 mmHg 71%
    11:00 +25°C° 0.1 mm 3 mps 693 mmHg 67%
    12:00 +26°C° 0.1 mm 3 mps 693 mmHg 62%
    13:00 +26°C° 0.6 mm 3 mps 693 mmHg 63%
    14:00 +26°C° 0.6 mm 4 mps 693 mmHg 63%
    15:00 +26°C° 0.6 mm 5 mps 693 mmHg 64%
    16:00 +25°C° 0.1 mm 5 mps 693 mmHg 66%
    17:00 +23°C° 0.1 mm 5 mps 693 mmHg 69%
    18:00 +23°C° 0.1 mm 5 mps 693 mmHg 72%
    19:00 +22°C° 0 mm 4 mps 694 mmHg 76%
    20:00 +21°C° 0 mm 4 mps 694 mmHg 79%
    21:00 +20°C° 0 mm 3 mps 694 mmHg 83%
    22:00 +20°C° 0 mm 3 mps 694 mmHg 84%
    23:00 +20°C° 0 mm 3 mps 695 mmHg 85%

    Day after tomorrow, 25 January, Saturday

    Time Temperature Precipitation Wind Pressure Humidity
    00:00 +19°C° 0 mm 3 mps 695 mmHg 86%
    01:00 +19°C° 0 mm 2 mps 694 mmHg 85%
    02:00 +19°C° 0 mm 2 mps 694 mmHg 85%
    03:00 +19°C° 0 mm 2 mps 694 mmHg 84%
    04:00 +19°C° 0 mm 2 mps 694 mmHg 85%
    05:00 +19°C° 0 mm 2 mps 694 mmHg 86%
    06:00 +19°C° 0 mm 2 mps 695 mmHg 86%
    07:00 +20°C° 0 mm 2 mps 695 mmHg 79%
    08:00 +21°C° 0 mm 2 mps 696 mmHg 72%
    09:00 +24°C° 0 mm 2 mps 696 mmHg 65%
    10:00 +25°C° 0 mm 2 mps 697 mmHg 59%
    11:00 +27°C° 0 mm 2 mps 697 mmHg 54%
    12:00 +29°C° 0 mm 2 mps 697 mmHg 48%
    13:00 +29°C° 0 mm 2 mps 696 mmHg 46%
    14:00 +30°C° 0 mm 2 mps 696 mmHg 44%
    15:00 +31°C° 0 mm 2 mps 696 mmHg 42%
    16:00 +29°C° 0 mm 3 mps 696 mmHg 50%
    17:00 +28°C° 0 mm 3 mps 695 mmHg 58%
    18:00 +27°C° 0 mm 4 mps 695 mmHg 66%
    19:00 +25°C° 0 mm 3 mps 695 mmHg 69%
    20:00 +24°C° 0 mm 2 mps 696 mmHg 73%
    21:00 +23°C° 0 mm 2 mps 696 mmHg 76%
    22:00 +23°C° 0 mm 2 mps 696 mmHg 77%
    23:00 +22°C° 0 mm 1 mps 696 mmHg 77%

    26 January, Sunday

    Time Temperature Precipitation Wind Pressure Humidity
    00:00 +22°C° 0 mm 1 mps 696 mmHg 77%
    01:00 +21°C° 0 mm 1 mps 696 mmHg 79%
    02:00 +21°C° 0 mm 1 mps 696 mmHg 82%
    03:00 +21°C° 0 mm 1 mps 695 mmHg 84%
    04:00 +21°C° 0 mm 1 mps 696 mmHg 85%
    05:00 +20°C° 0 mm 1 mps 696 mmHg 86%
    06:00 +20°C° 0 mm 1 mps 696 mmHg 87%
    07:00 +22°C° 0 mm 1 mps 697 mmHg 75%
    08:00 +25°C° 0 mm 1 mps 697 mmHg 63%
    09:00 +25°C° 0 mm 0 mps 698 mmHg 51%
    10:00 +27°C° 0 mm 0 mps 698 mmHg 41%
    11:00 +31°C° 0 mm 1 mps 698 mmHg 32%
    12:00 +33°C° 0 mm 1 mps 699 mmHg 23%
    13:00 +34°C° 0 mm 2 mps 698 mmHg 24%
    14:00 +34°C° 0 mm 2 mps 698 mmHg 26%
    15:00 +34°C° 0 mm 3 mps 697 mmHg 27%
    16:00 +31°C° 0 mm 3 mps 697 mmHg 33%
    17:00 +30°C° 0 mm 4 mps 697 mmHg 39%
    18:00 +28°C° 0 mm 4 mps 696 mmHg 44%
    19:00 +26°C° 0 mm 3 mps 696 mmHg 50%
    20:00 +25°C° 0 mm 3 mps 697 mmHg 55%
    21:00 +23°C° 0 mm 2 mps 697 mmHg 60%
    22:00 +23°C° 0 mm 2 mps 697 mmHg 61%
    23:00 +21°C° 0 mm 2 mps 697 mmHg 63%

    27 January, Monday

    Time Temperature Precipitation Wind Pressure Humidity
    00:00 +21°C° 0 mm 2 mps 697 mmHg 64%
    01:00 +21°C° 0 mm 2 mps 697 mmHg 70%
    02:00 +20°C° 0 mm 2 mps 696 mmHg 77%
    03:00 +20°C° 0 mm 2 mps 696 mmHg 83%
    04:00 +20°C° 0 mm 2 mps 696 mmHg 83%
    05:00 +21°C° 0 mm 1 mps 697 mmHg 83%
    06:00 +21°C° 0 mm 1 mps 697 mmHg 84%
    07:00 +23°C° 0 mm 1 mps 697 mmHg 75%
    08:00 +25°C° 0 mm 1 mps 698 mmHg 67%
    09:00 +28°C° 0 mm 1 mps 699 mmHg 59%
    10:00 +29°C° 0 mm 1 mps 699 mmHg 51%
    11:00 +31°C° 0 mm 1 mps 699 mmHg 44%
    12:00 +34°C° 0 mm 2 mps 699 mmHg 37%
    13:00 +34°C° 0 mm 2 mps 698 mmHg 37%
    14:00 +34°C° 0 mm 2 mps 698 mmHg 37%
    15:00 +34°C° 0 mm 3 mps 697 mmHg 37%
    16:00 +33°C° 0 mm 3 mps 697 mmHg 43%
    17:00 +31°C° 0 mm 3 mps 697 mmHg 49%
    18:00 +29°C° 0 mm 3 mps 697 mmHg 56%
    19:00 +28°C° 0 mm 3 mps 697 mmHg 57%
    20:00 +27°C° 0 mm 2 mps 697 mmHg 59%
    21:00 +26°C° 0 mm 2 mps 697 mmHg 60%
    22:00 +25°C° 0 mm 2 mps 697 mmHg 62%
    23:00 +25°C° 0 mm 1 mps 697 mmHg 63%

    28 January, Tuesday

    Time Temperature Precipitation Wind Pressure Humidity
    00:00 +24°C° 0 mm 1 mps 697 mmHg 65%
    01:00 +24°C° 0 mm 1 mps 697 mmHg 68%
    02:00 +24°C° 0 mm 1 mps 697 mmHg 72%
    03:00 +23°C° 0 mm 1 mps 696 mmHg 75%
    04:00 +23°C° 0 mm 1 mps 696 mmHg 77%
    05:00 +23°C° 0 mm 1 mps 697 mmHg 79%
    06:00 +23°C° 0 mm 1 mps 697 mmHg 80%
    07:00 +25°C° 0 mm 1 mps 697 mmHg 73%
    08:00 +27°C° 0 mm 1 mps 698 mmHg 65%
    09:00 +29°C° 0 mm 1 mps 699 mmHg 57%
    10:00 +30°C° 0.1 mm 1 mps 699 mmHg 52%
    11:00 +32°C° 0.1 mm 1 mps 699 mmHg 47%
    12:00 +34°C° 0.1 mm 2 mps 699 mmHg 42%
    13:00 +34°C° 0.3 mm 2 mps 699 mmHg 45%
    14:00 +33°C° 0.3 mm 3 mps 698 mmHg 48%
    15:00 +33°C° 0.3 mm 3 mps 698 mmHg 51%
    16:00 +30°C° 0.3 mm 3 mps 697 mmHg 55%
    17:00 +29°C° 0.3 mm 3 mps 697 mmHg 59%
    18:00 +28°C° 0.3 mm 4 mps 697 mmHg 62%
    19:00 +27°C° 0 mm 3 mps 697 mmHg 66%
    20:00 +26°C° 0 mm 3 mps 697 mmHg 69%
    21:00 +25°C° 0 mm 2 mps 697 mmHg 72%
    22:00 +24°C° 0 mm 2 mps 697 mmHg 74%
    23:00 +24°C° 0 mm 2 mps 698 mmHg 76%
    Show more